This is the latest recevied weather packets stored in our database for station/object BV3BA-13. If no packets are shown the sender has not sent any weather packets the latest 10 day(s).
| Time | Temp. | Humidity | Pressure | Rain* | Wind** | Luminosity | Snow |
|---|---|---|---|---|---|---|---|
| 1777301824 | 22.22° C | 84% | 1010.2 hPa | 0 mm | - | - | - |
| 1777301224 | 22.22° C | 84% | 1010.2 hPa | 0 mm | - | - | - |
| 1777300624 | 22.22° C | 82% | 1010.3 hPa | 0 mm | - | - | - |
| 1777300024 | 22.22° C | 83% | 1010.4 hPa | 0 mm | - | - | - |
| 1777299424 | 22.22° C | 83% | 1010.4 hPa | 0 mm | - | - | - |
| 1777298824 | 22.22° C | 82% | 1010.5 hPa | 0 mm | - | - | - |
| 1777298224 | 22.22° C | 82% | 1010.5 hPa | 0 mm | - | - | - |
| 1777297623 | 22.78° C | 82% | 1010.5 hPa | 0 mm | - | - | - |
| 1777297024 | 22.78° C | 80% | 1010.5 hPa | 0 mm | - | - | - |
| 1777296424 | 22.78° C | 80% | 1010.5 hPa | 0 mm | - | - | - |
| 1777295823 | 22.78° C | 81% | 1010.4 hPa | 0 mm | - | - | - |
| 1777295223 | 22.78° C | 80% | 1010.3 hPa | 0 mm | - | - | - |
| 1777294624 | 23.33° C | 78% | 1010.2 hPa | 0 mm | - | - | - |
| 1777294024 | 23.33° C | 79% | 1010.1 hPa | 0 mm | - | - | - |
| 1777293424 | 23.33° C | 78% | 1010.2 hPa | 0 mm | - | - | - |
| 1777292824 | 23.33° C | 80% | 1010.1 hPa | 0 mm | - | - | - |
| 1777292223 | 23.89° C | 79% | 1010 hPa | 0 mm | - | - | - |
| 1777291623 | 23.89° C | 80% | 1009.9 hPa | 0 mm | - | - | - |
| 1777290424 | 23.89° C | 77% | 1009.6 hPa | 0 mm | - | - | - |
| 1777289824 | 23.89° C | 78% | 1009.5 hPa | 0 mm | - | - | - |
| 1777289224 | 23.89° C | 79% | 1009.3 hPa | 0 mm | - | - | - |
| 1777288625 | 24.44° C | 74% | 1009.1 hPa | 0 mm | - | - | - |
| 1777288024 | 24.44° C | 74% | 1008.9 hPa | 0 mm | - | - | - |
| 1777287423 | 24.44° C | 72% | 1008.8 hPa | 0 mm | - | - | - |
| 1777286824 | 24.44° C | 72% | 1008.9 hPa | 0 mm | - | - | - |
* Rain latest hour (hover to see other rain measurements)
** Current wind speed in m/s (hover to see current wind gust speed)